Wind_Speed
21 20 20 20 21 21 20 20 20 21 21 21 21 20 19 18 16 15 13 12 10 9 8 6 5 4 4 3 3 3 3 4 4 4 4 5 5 5 6 6 7 8 8
22 21 21 21 21 21 22 22 22 22 22 22 22 22 21 20 19 18 16 15 13 12 10 9 8 6 6 5 5 4 4 5 5 5 5 6 6 6 6 7 8 8 8
25 24 23 22 22 22 22 22 23 23 23 23 23 23 24 23 22 21 19 18 16 15 13 11 10 9 8 7 7 6 6 6 6 6 6 7 7 7 7 8 8 9 9
28 27 26 25 24 24 24 24 23 24 24 24 24 24 24 24 24 23 22 21 19 18 16 14 13 12 11 10 9 8 8 7 7 8 8 8 8 8 8 9 9 9 10
31 30 28 27 26 25 25 25 25 25 25 26 26 26 26 26 25 25 25 23 22 21 19 17 16 15 13 13 12 11 10 9 9 9 9 9 9 9 10 10 10 10 10
34 33 32 30 29 28 28 28 28 27 27 27 28 28 28 28 27 27 26 25 25 24 22 21 19 18 16 15 14 13 12 11 11 11 10 10 10 11 11 11 11 12 12
38 37 35 34 33 31 30 29 29 29 29 29 29 30 30 29 29 29 28 27 27 26 25 23 22 21 19 18 17 16 15 14 13 13 12 12 12 12 12 12 13 13 13
41 40 39 38 37 36 34 33 32 31 31 31 31 31 31 31 31 30 30 30 29 28 27 26 25 23 22 21 19 18 17 17 16 15 15 14 14 14 14 14 14 14 15
43 43 43 42 41 39 38 36 35 34 33 33 33 33 32 32 32 32 33 32 31 30 29 28 27 26 25 23 22 21 20 19 19 18 17 17 16 16 16 16 16 16 16
45 45 45 45 44 43 42 40 38 37 36 36 35 34 34 34 34 34 34 34 34 33 32 31 30 29 28 26 25 24 23 22 21 20 20 19 19 18 18 17 17 17 18
46 47 47 47 46 46 45 44 42 40 39 39 38 37 37 36 36 35 36 36 36 35 34 33 32 32 30 29 28 27 26 25 24 23 22 22 21 21 20 19 19 19 19
47 48 48 48 48 48 48 47 45 44 42 41 40 40 39 38 38 38 38 38 38 37 36 36 35 34 33 32 31 30 29 28 27 26 25 24 24 23 23 22 22 21 21
47 48 49 50 50 50 50 49 48 47 46 45 44 42 41 40 39 39 39 39 39 39 38 38 37 36 35 35 34 33 31 30 29 29 28 27 26 26 25 25 24 24 23
47 48 49 50 51 52 52 51 51 50 49 48 47 46 44 43 42 41 41 40 39 40 41 40 39 38 38 37 36 35 34 33 32 31 30 30 29 28 28 27 27 26 26
48 49 51 51 52 53 53 54 54 53 52 52 50 49 48 47 45 44 43 43 41 40 41 42 41 40 40 39 38 37 36 36 34 33 33 32 31 31 30 30 29 29 28
50 51 52 53 54 54 55 55 56 55 55 54 53 52 51 50 48 47 45 44 43 42 42 42 43 43 42 41 40 39 38 38 37 36 35 34 34 33 32 32 32 31 31
52 53 54 55 55 56 56 57 57 57 57 57 56 55 53 52 51 50 48 47 45 44 44 44 44 44 44 42 42 41 40 39 39 38 37 36 36 35 35 34 34 33 33
53 53 54 56 56 57 58 59 59 59 59 58 59 59 57 55 53 53 51 49 47 47 46 46 45 45 45 44 44 43 42 41 41 40 39 39 38 37 37 36 36 35 35
51 51 52 54 56 57 58 59 60 60 60 60 61 60 59 58 56 54 53 52 49 48 48 47 47 46 45 45 45 45 44 43 43 42 41 41 40 40 40 39 38 38 37
49 50 51 53 54 56 57 57 59 60 61 61 61 61 60 59 58 56 54 53 51 50 48 48 49 48 47 46 46 46 46 45 44 44 43 43 43 43 42 41 41 40 40
46 47 49 50 52 54 55 56 56 58 59 60 61 61 61 60 59 58 56 55 53 51 50 50 50 49 49 48 48 48 48 48 47 46 45 45 45 45 45 44 43 42 41
41 43 45 47 49 51 52 53 54 54 56 57 58 59 61 61 60 59 57 56 54 53 51 52 51 51 51 50 50 50 50 49 48 48 48 47 47 46 46 45 44 43 43
36 37 40 42 44 47 49 51 52 52 52 54 55 56 58 59 59 59 59 57 56 54 54 53 52 50 51 51 52 52 50 49 49 48 48 48 47 46 46 45 44 44 44
29 31 33 35 38 41 44 46 47 48 49 50 51 51 53 56 57 57 57 57 56 55 54 54 53 52 52 52 52 52 51 50 51 50 50 48 48 47 46 45 45 46 46
25 25 26 27 30 33 37 40 42 43 45 47 48 48 49 51 52 54 55 56 56 56 55 54 53 53 52 53 53 52 51 51 50 51 50 49 49 48 48 47 47 47 48
21 21 22 22 24 27 30 34 38 40 41 43 44 45 46 48 49 50 53 54 55 55 56 56 54 54 53 53 53 52 52 52 51 50 50 51 52 51 50 49 49 50 50
Wind_Direction
255 256 255 255 254 253 253 252 251 250 249 249 248 249 249 250 249 247 245 244 244 243 242 240 239 240 247 258 266 268 264 262 267 270 272 276 284 292 302 312 322 327 332
255 255 254 255 255 254 253 253 253 252 250 250 250 249 249 250 250 250 248 246 246 245 245 243 241 241 243 248 256 262 264 262 266 268 270 271 277 285 292 302 311 318 323
255 254 254 254 255 255 254 253 253 252 251 251 251 251 250 249 250 251 250 249 247 247 246 245 244 243 243 244 249 256 259 261 262 263 267 270 273 278 284 292 302 309 313
253 254 254 254 254 254 255 254 253 253 252 251 251 251 251 251 250 251 251 250 249 249 248 247 247 246 244 244 247 251 255 257 259 260 262 267 270 273 278 285 293 300 305
252 252 253 253 253 253 254 254 254 254 254 253 253 252 252 251 251 251 251 251 250 250 250 249 248 247 246 246 247 249 252 254 256 257 259 263 267 270 274 280 286 293 298
251 251 251 252 253 253 253 253 254 254 254 255 255 254 253 252 251 252 252 252 251 251 251 250 249 248 248 247 247 248 249 251 253 255 257 260 264 267 271 276 282 287 291
251 251 250 251 252 252 252 252 253 254 254 254 255 255 254 253 253 252 252 252 252 251 251 251 250 249 249 249 248 248 249 249 250 253 256 258 261 264 267 272 277 282 286
250 251 250 251 251 251 252 251 252 253 253 254 254 254 254 253 253 253 253 253 252 251 251 251 250 250 250 250 249 248 248 249 249 251 254 257 260 262 265 269 273 278 282
250 250 250 250 251 251 251 251 251 251 252 253 253 253 253 253 253 253 253 253 252 251 251 251 251 250 250 249 249 248 248 248 249 251 253 255 258 261 264 268 271 275 279
249 249 250 250 250 250 250 250 250 250 250 251 252 253 252 251 252 252 252 253 252 252 251 250 250 250 250 249 249 248 248 248 249 251 252 254 257 259 262 265 269 273 276
250 250 250 249 249 249 249 249 249 248 248 249 251 251 252 252 251 251 251 252 252 251 251 250 250 249 249 249 249 249 249 249 250 251 252 254 256 258 260 263 267 270 273
252 251 250 250 249 249 249 249 248 247 247 248 249 250 251 252 252 251 252 252 252 252 251 250 250 250 249 249 249 249 250 250 251 252 252 254 256 258 260 262 265 268 271
254 253 252 251 250 249 249 248 248 247 247 247 248 249 249 249 251 252 253 252 252 252 252 251 250 250 250 249 250 250 250 251 252 253 253 254 256 258 259 261 263 267 270
256 254 253 252 251 250 249 248 246 247 246 246 246 247 247 248 250 251 252 252 252 252 252 251 250 250 251 250 250 250 251 252 252 253 254 255 256 257 259 261 263 265 268
258 256 254 253 252 250 249 247 246 246 246 246 246 246 246 247 248 250 251 251 251 251 251 251 250 250 251 251 251 252 252 252 252 253 255 256 257 257 259 261 263 265 267
259 257 256 254 252 251 249 248 247 246 245 245 244 245 245 246 246 247 250 250 250 250 250 251 251 251 251 252 252 253 253 253 253 254 255 256 257 258 259 261 263 264 267
260 258 257 254 252 251 250 248 246 246 245 245 244 244 245 245 246 247 248 248 249 250 251 252 252 252 251 252 253 253 254 254 254 254 256 257 258 259 260 261 263 264 266
260 259 257 255 253 251 250 248 247 246 245 245 244 244 245 245 246 247 247 248 248 249 250 250 251 252 252 252 252 253 253 254 255 255 256 257 258 259 260 261 263 264 266
260 259 257 256 254 252 251 249 247 246 245 245 244 244 244 244 245 246 246 246 246 247 248 248 250 251 252 253 253 253 253 254 255 256 257 258 259 260 261 261 263 264 266
261 260 258 256 254 252 251 249 248 247 246 246 245 244 244 244 244 244 244 244 245 245 246 248 249 250 252 253 253 253 254 254 255 256 257 258 259 260 261 261 263 264 266
262 260 259 257 255 252 250 249 248 247 246 246 246 246 246 245 243 243 242 243 243 245 246 247 247 248 250 252 254 254 254 254 255 257 258 260 261 261 262 262 263 265 265
263 259 258 256 254 251 250 248 248 247 246 246 246 246 245 245 243 242 242 242 243 244 244 246 247 248 249 251 254 255 254 255 256 257 259 260 261 262 263 263 263 263 264
264 261 258 255 253 251 249 247 246 245 246 245 245 245 244 244 244 243 242 242 242 243 245 245 246 246 250 251 252 254 255 256 257 259 260 260 260 261 262 263 263 263 263
265 263 260 258 254 251 248 246 245 245 245 245 245 245 244 243 243 243 242 242 242 242 244 245 246 248 249 250 251 253 255 257 258 259 259 260 260 260 262 262 263 263 263
268 266 262 259 255 252 248 245 243 242 243 243 243 243 244 243 243 243 242 242 242 243 243 244 246 247 248 250 251 253 255 256 258 259 260 260 261 262 262 262 263 262 264
271 267 264 261 257 253 248 244 243 243 245 244 244 244 243 243 242 242 242 242 242 243 244 245 248 247 249 251 252 252 254 256 259 259 260 261 261 261 262 263 263 264 265
Height
5866 5867 5868 5869 5870 5871 5872 5873 5874 5875 5876 5877 5878 5878 5879 5880 5881 5881 5881 5881 5882 5882 5882 5882 5882 5882 5882 5882 5882 5881 5881 5881 5881 5881 5881 5881 5881 5881 5880 5880 5879 5879 5878
5863 5864 5865 5866 5867 5868 5869 5870 5871 5872 5873 5874 5875 5875 5876 5877 5878 5879 5879 5879 5880 5880 5880 5880 5880 5880 5880 5880 5880 5880 5880 5880 5880 5880 5880 5880 5880 5880 5879 5879 5879 5878 5877
5859 5860 5861 5862 5863 5864 5865 5866 5867 5868 5869 5870 5871 5872 5873 5874 5875 5876 5877 5877 5877 5878 5878 5878 5878 5878 5879 5879 5879 5879 5879 5879 5879 5879 5879 5879 5878 5878 5878 5878 5877 5877 5876
5855 5856 5857 5858 5859 5860 5862 5863 5864 5865 5866 5867 5868 5869 5870 5871 5872 5873 5874 5874 5875 5875 5876 5876 5876 5877 5877 5877 5877 5877 5877 5877 5877 5877 5877 5877 5877 5877 5877 5876 5876 5875 5875
5850 5851 5853 5854 5855 5856 5857 5858 5859 5861 5862 5863 5864 5865 5866 5867 5868 5869 5870 5871 5872 5872 5873 5873 5874 5874 5874 5875 5875 5875 5875 5875 5875 5875 5875 5875 5875 5875 5875 5875 5874 5874 5873
5844 5846 5847 5849 5850 5851 5852 5854 5855 5856 5857 5858 5859 5860 5861 5863 5864 5865 5866 5867 5868 5869 5870 5870 5871 5871 5872 5872 5872 5872 5872 5873 5873 5873 5873 5873 5873 5873 5873 5872 5872 5872 5871
5837 5839 5841 5843 5844 5846 5847 5848 5850 5851 5852 5853 5854 5856 5857 5858 5859 5861 5862 5863 5864 5865 5866 5867 5867 5868 5869 5869 5869 5869 5870 5870 5870 5870 5870 5870 5870 5870 5870 5870 5870 5869 5869
5831 5832 5835 5836 5838 5840 5841 5843 5844 5846 5847 5848 5849 5850 5852 5853 5854 5856 5857 5858 5859 5860 5861 5862 5863 5864 5865 5865 5866 5866 5866 5867 5867 5867 5867 5867 5867 5867 5867 5867 5867 5866 5866
5823 5825 5827 5829 5831 5833 5834 5836 5838 5840 5841 5842 5843 5845 5846 5848 5849 5850 5852 5853 5854 5855 5857 5858 5859 5860 5861 5861 5862 5862 5863 5863 5863 5863 5864 5864 5864 5864 5864 5864 5864 5863 5863
5815 5817 5819 5821 5823 5825 5827 5829 5831 5833 5834 5836 5837 5839 5840 5841 5843 5844 5846 5847 5848 5850 5851 5852 5854 5855 5856 5857 5858 5858 5858 5859 5859 5859 5860 5860 5860 5860 5860 5860 5860 5860 5860
5806 5808 5810 5812 5814 5817 5819 5821 5823 5825 5827 5829 5830 5832 5833 5835 5836 5838 5840 5841 5842 5844 5845 5847 5848 5849 5850 5851 5852 5853 5854 5854 5855 5855 5856 5856 5856 5856 5856 5856 5856 5856 5856
5796 5799 5801 5803 5806 5808 5810 5812 5815 5817 5819 5821 5823 5825 5827 5828 5830 5831 5833 5834 5836 5837 5839 5840 5842 5843 5844 5846 5847 5848 5849 5850 5850 5851 5851 5852 5852 5852 5852 5852 5852 5852 5852
5787 5789 5791 5794 5796 5798 5801 5803 5806 5808 5811 5813 5815 5817 5819 5821 5823 5824 5826 5827 5829 5830 5832 5833 5835 5837 5838 5840 5841 5842 5843 5844 5845 5845 5846 5847 5847 5847 5847 5847 5847 5847 5847
5776 5778 5780 5783 5785 5788 5790 5793 5796 5799 5801 5804 5806 5809 5811 5813 5815 5817 5819 5820 5822 5824 5825 5826 5828 5830 5831 5833 5834 5836 5837 5838 5839 5840 5841 5841 5841 5842 5842 5842 5842 5842 5842
5765 5767 5769 5771 5774 5776 5779 5782 5785 5788 5791 5794 5797 5799 5802 5804 5807 5809 5811 5812 5815 5816 5818 5819 5821 5823 5824 5826 5827 5829 5831 5832 5833 5834 5835 5835 5836 5836 5836 5837 5837 5837 5837
5753 5755 5757 5759 5762 5765 5768 5771 5774 5777 5780 5783 5786 5789 5792 5795 5797 5800 5802 5805 5806 5808 5810 5811 5813 5815 5817 5819 5820 5822 5823 5825 5826 5827 5828 5829 5830 5830 5830 5831 5831 5831 5831
5740 5742 5744 5746 5749 5752 5755 5758 5762 5765 5768 5772 5776 5778 5781 5785 5787 5790 5793 5796 5798 5800 5802 5803 5805 5807 5809 5811 5813 5814 5816 5817 5819 5820 5821 5822 5823 5823 5824 5824 5824 5824 5824
5727 5729 5730 5732 5735 5738 5741 5745 5749 5752 5756 5760 5764 5767 5771 5774 5777 5780 5783 5786 5788 5791 5793 5795 5797 5799 5801 5803 5804 5806 5808 5809 5811 5812 5813 5814 5815 5816 5816 5817 5817 5817 5817
5713 5715 5717 5719 5722 5725 5728 5731 5735 5739 5743 5747 5751 5755 5759 5763 5766 5769 5773 5776 5778 5781 5783 5785 5787 5789 5792 5794 5796 5797 5799 5800 5802 5804 5805 5806 5807 5808 5808 5809 5809 5809 5809
5700 5702 5704 5706 5709 5711 5714 5718 5722 5726 5730 5734 5738 5742 5746 5750 5754 5758 5762 5765 5768 5770 5773 5775 5778 5780 5782 5784 5786 5787 5790 5791 5793 5795 5796 5798 5799 5799 5800 5800 5801 5801 5801
5687 5689 5690 5692 5694 5697 5701 5704 5708 5713 5717 5721 5725 5729 5733 5738 5742 5746 5750 5754 5757 5760 5763 5765 5767 5770 5772 5774 5775 5777 5780 5782 5784 5785 5787 5788 5790 5790 5791 5792 5792 5792 5792
5676 5677 5678 5679 5681 5684 5687 5691 5695 5699 5704 5708 5712 5716 5720 5725 5729 5733 5738 5742 5746 5749 5752 5755 5757 5759 5762 5764 5765 5767 5769 5772 5774 5775 5777 5778 5780 5780 5781 5782 5783 5783 5783
5666 5666 5666 5667 5669 5671 5674 5678 5682 5686 5691 5695 5699 5703 5708 5712 5716 5721 5726 5731 5734 5738 5741 5743 5746 5748 5751 5753 5754 5756 5758 5761 5763 5765 5766 5767 5769 5770 5771 5772 5772 5773 5773
5658 5657 5657 5657 5658 5659 5662 5666 5670 5675 5680 5684 5687 5691 5695 5699 5704 5709 5714 5718 5722 5726 5729 5732 5734 5737 5739 5741 5743 5745 5748 5750 5752 5754 5756 5756 5757 5759 5760 5761 5762 5762 5763
5651 5650 5649 5649 5649 5651 5652 5656 5660 5664 5669 5672 5676 5679 5683 5687 5692 5697 5701 5706 5710 5714 5717 5720 5723 5725 5727 5730 5732 5734 5736 5738 5740 5742 5744 5746 5747 5748 5749 5750 5751 5752 5752
5646 5644 5644 5643 5643 5644 5645 5648 5652 5656 5659 5663 5666 5669 5673 5677 5681 5685 5690 5694 5698 5702 5706 5708 5710 5713 5716 5718 5720 5722 5724 5727 5729 5730 5732 5734 5735 5737 5737 5738 5739 5741 5741